Location: Kenockee Observatory
(43.0173°N, 82.7297°W)
Time: 10:10:54
(UTC-04:00)

Daily predictions for brighter satellites

Satellite Brightness Start Highest point End
(mag) Time Altitude Azimuth Time Altitude Azimuth Time Altitude Azimuth
FENGYUN 3A 4.2 21:28:25 10° S 21:33:43 62° W 21:39:06 10° NNW
Cosmos 1515 4.4 21:30:42 10° SSE 21:34:13 35° E 21:37:46 10° NNE
Cosmos 1602 Rocket 3.6 21:31:26 10° S 21:35:55 89° ENE 21:40:24 10° N
Cosmos 1603 4.0 21:33:16 10° SSW 21:38:53 74° WNW 21:44:31 10° NNE
Cosmos 1825 Rocket 4.5 21:35:30 10° SSE 21:39:25 31° E 21:43:19 10° NNE
USA 186 3.7 21:42:09 10° SSW 21:44:21 22° W 21:46:27 10° NW
Cosmos 1943 Rocket 3.5 21:40:30 10° N 21:45:11 27° NE 21:49:51 10° ESE
Cosmos 1812 Rocket 3.6 21:41:46 10° N 21:46:12 86° E 21:50:37 10° S
ALOS 3.6 21:42:18 10° SSW 21:46:40 40° W 21:51:05 10° NNW
Lacrosse 4 Rocket 1.8 21:44:12 10° S 21:47:59 40° ESE 21:51:50 10° NE
Atlas Centaur 2 3.7 21:47:40 10° WSW 21:53:32 30° S 22:00:12 10° ESE
Cosmos 1992 Rocket 4.0 21:49:20 10° NNW 21:54:35 89° ENE 21:59:48 10° SSE
SeaSat 1 3.1 21:52:49 10° SE 21:57:29 45° ENE 22:02:11 10° NNW
ISS -1.8 21:54:41 10° W 21:57:48 41° NNW 22:00:56 10° NE
Cosmos 1943 3.2 21:52:30 10° SSW 21:58:07 69° ESE 22:03:47 10° NNE
Tsikada Rocket 4.2 21:52:22 10° S 21:58:46 80° W 22:05:10 10° N
H-2A R/B 2.5 21:54:56 10° S 21:59:11 66° WSW 22:03:36 10° NNW
deb Chang Zheng 4 4.1 22:00:58 10° N 22:05:20 65° WNW 22:09:39 10° SSW
Meteor 2-12 Rocket 4.5 22:00:18 10° N 22:06:25 86° W 22:12:28 10° S
Cosmos 1238 4.4 22:04:05 10° SSW 22:07:06 69° W 22:10:11 10° N
USA 81 4.1 22:06:39 10° N 22:11:57 70° E 22:17:12 10° SSE
CZ-4B R/B 3.8 22:08:34 10° NNE 22:13:33 48° E 22:18:35 10° S
Lacrosse 5 rocket 4.4 22:13:01 10° NW 22:14:48 12° N 22:16:37 10° NNE
Cosmos 1953 4.0 22:12:11 10° NNE 22:15:06 19° ENE 22:17:07 14° ESE
Cosmos 1939 Rocket 3.6 22:13:39 10° S 22:17:42 52° W 22:21:45 10° NNW
PSLV R/B 3.4 22:15:11 10° W 22:18:39 60° S 22:21:15 17° ESE
Cosmos 2142 Rocket 4.5 22:13:38 10° N 22:19:57 79° E 22:25:55 11° S
Terra 3.5 22:19:03 12° ESE 22:22:00 21° ENE 22:25:29 10° NNE
ARGOS 3.6 22:18:00 15° SE 22:22:14 48° ENE 22:27:27 10° N
ATLAS 3B R/B 2.9 22:14:58 10° SSW 22:22:41 84° ESE 22:30:15 10° NE
Cosmos 1190 Rocket 4.1 22:17:50 10° SSW 22:23:09 89° WNW 22:28:31 10° NNE
Cosmos 1346 Rocket 2.7 22:20:06 10° S 22:23:59 73° E 22:27:56 10° NNE
SPOT 5 2.8 22:21:02 11° S 22:25:17 69° WSW 22:29:36 10° NNW
Cosmos-2242 4.0 22:21:35 10° N 22:25:35 32° ENE 22:28:02 19° SE
USA 245 4.1 22:21:18 15° SSE 22:26:00 63° ENE 22:30:38 10° N
Cosmos 1634 Rocket 4.0 22:20:52 10° N 22:27:04 88° W 22:33:08 11° S
Cosmos 1842 4.1 22:25:38 20° SE 22:27:40 33° E 22:31:12 10° NNE
Cosmos 1953 Rocket 3.5 22:23:37 10° S 22:28:00 78° E 22:32:29 10° N
CZ-4 SHROUD 4.1 22:25:31 11° S 22:28:21 45° W 22:31:25 10° NNW
MetOp-B 4.2 22:24:19 13° SSE 22:29:11 88° WSW 22:34:35 10° NNW
PSLV R/B 4.0 22:26:38 12° S 22:29:18 47° W 22:32:21 10° NNW
Cosmos 1140 Rocket 4.3 22:26:31 17° SSE 22:29:44 31° E 22:34:19 10° NE
Cosmos 489 Rocket 4.5 22:27:40 10° SSW 22:34:01 83° ESE 22:40:26 10° NNE
Lacrosse 5 4.4 22:32:47 10° NNW 22:36:06 17° N 22:39:25 10° NE
H-2A R/B 3.0 22:33:42 17° ESE 22:36:40 31° ENE 22:41:08 10° N
SL-8 R/B 4.1 22:32:09 10° WNW 22:36:58 62° NNE 22:41:05 14° E
Meteor 1-21 4.3 22:31:59 10° S 22:37:39 66° E 22:43:26 10° NNE
Cosmos 2369 Rocket 2.9 22:34:23 10° NW 22:39:50 49° WSW 22:44:34 13° S
Cosmos 676 Rocket 4.0 22:35:20 10° SSW 22:40:40 79° ESE 22:46:01 10° NNE
USA 234 3.5 22:37:08 15° ESE 22:42:41 67° NE 22:49:12 10° NW
Cosmos 2279 Rocket 4.0 22:39:20 10° N 22:45:38 76° E 22:50:14 19° SSE
SPOT 1/Viking Rocket 3.5 22:41:55 18° SSE 22:45:46 86° WSW 22:50:58 10° NNW
YAOGAN 6 2.8 22:43:54 21° S 22:46:18 70° WSW 22:50:03 10° NNW
Cosmos 1932 4.4 22:41:14 10° SSW 22:47:21 68° ESE 22:53:33 10° NE
Cosmos 1766 3.3 22:48:55 10° N 22:52:56 78° W 22:55:14 24° S
SL-08 RB Rocket 3.6 22:51:28 26° SSE 22:54:02 77° ENE 22:58:34 10° N
NOAA 11 4.1 22:51:02 22° SSE 22:54:38 84° ENE 23:00:06 10° NNW
SAR-Lupe-2 4.2 22:58:16 32° ESE 22:59:18 41° ENE 23:02:42 10° N
Cosmos 1340 4.4 23:00:50 18° E 23:00:50 18° E 23:03:24 10° NE
Cosmos 1544 4.4 22:57:57 10° NNE 23:01:11 26° ENE 23:01:55 24° E
Cosmos 1758 Rocket 4.1 22:57:14 10° SSW 23:01:32 56° W 23:05:49 10° N
CARTOSAT-1 4.0 23:02:00 31° SE 23:03:43 49° ENE 23:07:55 10° N
CZ-4C R/B 3.3 23:03:35 22° ESE 23:03:49 23° ESE 23:08:11 10° ENE
Cosmos 1758 3.4 22:59:56 10° N 23:04:03 66° E 23:05:36 36° SSE
USA 238 DEB 3.7 23:03:11 10° SSW 23:10:16 76° ESE 23:17:20 10° NE
USA 238 3.7 23:03:17 10° SSW 23:10:22 76° ESE 23:17:25 10° NE
SL-27 R/B 2.7 23:10:37 23° SW 23:12:31 63° WNW 23:15:52 10° NNE
DMSP B5D2-2 4.3 23:10:53 10° NNE 23:16:03 52° E 23:18:08 33° SSE
Cosmos 1470 3.7 23:15:13 10° N 23:18:46 32° ENE 23:19:20 31° E
Cosmos 1805 3.2 23:15:23 10° N 23:19:21 86° E 23:20:29 46° SSE
IGS 5A 3.5 23:19:53 42° SE 23:21:06 65° ENE 23:25:14 10° N
COSMOS 2487 2.9 23:24:51 44° E 23:24:51 44° E 23:28:09 10° NNE
COSMOS 2406 3.2 23:21:23 14° SSW 23:26:21 90° WNW 23:32:08 10° NNE
Lacrosse 4 Rocket 4.0 23:23:44 10° W 23:26:52 21° NW 23:30:02 10° N
Cosmos 1943 Rocket 2.7 23:23:49 10° NW 23:29:10 49° WSW 23:31:53 27° SSW
Cosmos 1842 Rocket 3.5 23:27:27 10° N 23:31:52 86° E 23:33:08 47° SSE
Cosmos 2084 4.3 23:28:41 10° NW 23:32:35 39° WSW 23:33:35 33° SSW
Cosmos 2082 Rocket 4.2 23:34:49 12° E 23:34:49 12° E 23:36:17 10° ENE
ISS -0.4 23:32:29 10° NW 23:34:52 18° N 23:37:15 10° NE
SeaSat 1 4.0 23:32:37 17° SSW 23:35:09 26° WSW 23:39:16 10° NW
Cosmos 1656 Rocket 3.6 23:30:19 10° NNW 23:36:02 89° WSW 23:38:15 39° SSE
CZ-4C R/B 4.4 23:36:09 28° SW 23:37:40 39° W 23:41:25 10° NNW
Cosmos 2208 Rocket 4.2 23:36:24 10° NNW 23:41:31 63° WSW 23:43:24 38° S
Atlas Centaur 2 4.0 23:36:26 10° WSW 23:42:20 24° SSW 23:42:50 24° S
NOSS 3-2 (C) 3.8 23:43:08 37° SSE 23:44:38 44° ESE 23:50:49 10° NE
Cosmos 1707 3.0 23:50:19 53° E 23:50:19 53° E 23:54:06 10° NNE
Cosmos 1953 3.7 23:48:06 10° NNW 23:51:38 31° W 23:52:53 25° SW
Geosat 4.1 23:47:46 10° NNE 23:52:49 74° WNW 23:55:55 24° SW
Cosmos 1741 Rocket 4.3 23:49:47 22° SW 23:53:14 65° WNW 23:58:32 10° NNE
Lacrosse 5 rocket 4.3 23:53:21 10° NNW 23:55:38 14° NNE 23:57:59 10° NE
Cosmos 1076 Rocket 4.5 23:56:04 32° E 23:56:04 32° E 23:59:39 10° NNE
